Regional Weather Roundup
Issued by NWS

Home | Current Version | Previous Version | Graphics & Text | Print | Product List | Glossary On
Versions: 1 2 3 4 5 6 7 8 9 10 11 12 13 14 15 16 17 18 19 20 21 22 23 24 25 26 27
000
ASUS45 KPSR 222010
RWRAZ

ARIZONA HOURLY REGIONAL WEATHER ROUNDUP
NATIONAL WEATHER SERVICE PHOENIX AZ
100 PM MST SAT APR 22 2017

NOTE: FAIR INDICATES FEW OR NO CLOUDS BELOW 12,000 FEET WITH NO
SIGNIFICANT WEATHER AND/OR OBSTRUCTIONS TO VISIBILITY.

AZZ001>003-036-222100-
NORTHWEST ARIZONA

CITY           SKY/WX    TMP DP  RH WIND       PRES   REMARKS
BULLHEAD CITY  SUNNY     86  19   8 N23G30    29.89F
KINGMAN        NOT AVBL
$$

AZZ004>008-015-016-018-222100-
NORTH CENTRAL ARIZONA

CITY           SKY/WX    TMP DP  RH WIND       PRES   REMARKS
GRAND CANYON   SUNNY     63  24  22 NE12G21   30.18F
WILLIAMS       SUNNY     68  25  19 VRB3G16   30.15F
PRESCOTT       SUNNY     75  26  16 CALM      30.07F
FLAGSTAFF      SUNNY     63  18  17 VRB5      30.18F
PAYSON         SUNNY     75  19  12 VRB6G12   30.09F
PAGE           SUNNY     65  17  15 NE12      30.14F
$$

AZZ009>014-017-222100-
NORTHEAST ARIZONA

CITY           SKY/WX    TMP DP  RH WIND       PRES   REMARKS
WINSLOW        SUNNY     69  16  13 VRB6      30.13F
SAINT JOHNS    SUNNY     72  17  12 MISG      30.11F
WINDOW ROCK    SUNNY     67  18  15 CALM      30.15F
SHOW LOW       SUNNY     66  18  15 NW7       30.17F
$$

AZZ540-542>544-546-548-222100-
GREATER PHOENIX AREA

CITY           SKY/WX    TMP DP  RH WIND       PRES   REMARKS
PHOENIX        MOSUNNY   92  22   8 S6        29.84F
BUCKEYE        SUNNY     88  27  11 SE9       29.86F
GLENDALE       MOSUNNY   90  21   8 VRB5      29.86F
LUKE AFB       SUNNY     89  22   8 CALM      29.84F
DEER VALLEY    SUNNY     88  19   8 VRB7      29.86F
SCOTTSDALE     SUNNY     88  21   8 S6        29.88F
MESA-GATEWAY   MOSUNNY   90  21   8 SW9       29.87F
CHANDLER       SUNNY     90  19   7 SW5       29.86F
$$

AZZ539-553-222100-
SOUTHWEST MARICOPA COUNTY AND PINAL COUNTY

CITY           SKY/WX    TMP DP  RH WIND       PRES   REMARKS
CASA GRANDE    SUNNY     88  16   7 CALM      29.88F
GILA BEND      FAIR      89  17   7 CALM      29.84F
$$

AZZ503-504-507>509-222100-
SOUTHEAST ARIZONA

CITY           SKY/WX    TMP DP  RH WIND       PRES   REMARKS
TUCSON         SUNNY     91   7   4 N3        29.93F
DAVIS-MONTHAN  SUNNY     89  10   5 NW3       29.92F
RYAN FIELD     SUNNY     90  12   5 CALM      29.91F
NOGALES        SUNNY     88  13   6 SW7       29.98F
SIERRA VISTA   SUNNY     84  10   6 S3        30.04F
DOUGLAS        SUNNY     85  11   6 W6        30.00F
SAFFORD        SUNNY     87  11   6 VRB5      29.93F
$$

AZZ532-222100-
SOUTHWEST ARIZONA

CITY           SKY/WX    TMP DP  RH WIND       PRES   REMARKS
YUMA           SUNNY     94  22   7 N12G20    29.82F
$$

CAZ041-043-047-048-061-525>527-560>570-222100-
SOUTHERN CALIFORNIA

CITY           SKY/WX    TMP DP  RH WIND       PRES   REMARKS
DOWNTOWN L.A.  SUNNY     90  51  26 VRB5      29.84F
L.A. AIRPORT   MOSUNNY   74  57  55 W14       29.87F
SAN DIEGO      PTSUNNY   78  50  37 W8        29.88F
BURBANK        SUNNY     89  36  15 S10       29.86F
ONTARIO        MOSUNNY   90  25   9 SW7       29.87F
RIVERSIDE      SUNNY     93  32  11 W6        29.86F
PALM SPRINGS   MOSUNNY   96  19   6 E3        29.85F
EL CENTRO NAS  MOSUNNY   93  18   6 VRB3      29.84F
IMPERIAL       SUNNY     93  30  10 NW7       29.82F
BLYTHE         SUNNY     93  19   7 N10G21    29.85F
NEEDLES        MOSUNNY   90  22   8 NE14G25   29.90F
$$

NVZ020-UTZ003-222100-
SOUTHERN NEVADA-UTAH

CITY           SKY/WX    TMP DP  RH WIND       PRES   REMARKS
LAS VEGAS      MOSUNNY   78  17  10 N9        29.99F
SALT LAKE CITY PTSUNNY   60  30  32 W8        30.17F
$$

NMZ009-TXZ055-222100-
NEW MEXICO-WEST TEXAS

CITY           SKY/WX    TMP DP  RH WIND       PRES   REMARKS
ALBUQUERQUE    MOSUNNY   63  27  25 SE8       30.16F
EL PASO        NOT AVBL
$$


........................KEY........................
SKY/WX - SKY CONDITION/WEATHER
TMP    - TEMPERATURE IN FAHRENHEIT
DP     - DEW POINT IN FAHRENHEIT
RH     - RELATIVE HUMIDITY IN PERCENT
WIND   - DIRECTION AND SPEED IN MILES PER HOUR (MPH)
VRB    - VARIABLE WIND DIRECTION
PRES   - MEAN SEA LEVEL PRESSURE IN INCHES OF MERCURY
         F - FALLING PRESSURE   R - RISING PRESSURE
         S - STEADY PRESSURE
VSB    - VISIBILITY IN MILES
HX     - HEAT INDEX IN FAHRENHEIT
WCI    - WIND CHILL INDEX IN FAHRENHEIT
TC     - TEMPERATURE IN CELSIUS WHICH IS ALSO KNOWN AS
         TEMPERATURE IN CENTIGRADE
AFB    - AIR FORCE BASE
         LUKE AFB IS LUKE AIR FORCE BASE
         DAVIS-MONTHAN IS DAVIS-MONTHAN AIR FORCE BASE
NAS    - NAVAL AIR STATION
         EL CENTRO NAS IS EL CENTRO NAVAL AIR STATION
N/A    - NOT AVAILABLE





USA.gov is the U.S. government's official web portal to all federal, state and local government web resources and services.